Flag for Canada Weather past 2 weeks in Camrose, Alberta, Canada

Now
32 °F

Clear.


Feels Like: 26 °F
Forecast: 37 / 59 °F
Wind: 7 mph from South

Location: Edmonton International

Current Time: Oct 22, 2014 at 4:23:40 AM

Latest Report: Oct 22, 2014 at 4:00 AM


Visibility: 15 mi

Pressure: 29.75 "Hg

Humidity: 93%

Dew point: 30 °F

Location of CamroseLocation

Historic Weather in Camrose — Graph

°F

Camrose temperature yesterday

Maximum temperature yesterday: 57 °F (at 4:00 PM)
Minimum temperature yesterday: 34 °F (at 9:00 PM)
Average temperature yesterday: 44 °F

Past Weeks' High & Low Weather Summary

 TemperatureHumidityPressure
High72 °F (Oct 20, 2:00 PM)100% (Oct 9, 5:00 AM)30.20 "Hg (Oct 9, 5:00 AM)
Low25 °F (Oct 13, 7:00 AM)26% (Oct 11, 3:00 PM)29.49 "Hg (Oct 14, 10:00 AM)
Average47 °F66%29.83 "Hg
* Reported Oct 7 3:00 AM — Oct 22 3:00 AM, Camrose, Weather by CustomWeather, © 2014

Note: Actual official high and low records may vary slightly from our data, if they occured in-between our weather recording intervals... More about our weather records

Advertising

Camrose weather history for previous 24 hours

 ConditionsComfort  
Time TempWeatherWind HumidityBarometerVisibility
3:00 AM
Oct 22
34 °FClear.10 mph87%29.75 "Hg15 mi
2:00 AM36 °FPassing clouds.9 mph87%29.75 "Hg15 mi
1:00 AM34 °FPassing clouds.5 mph87%29.77 "Hg15 mi
12:00 AM32 °FPassing clouds.6 mph93%29.77 "Hg15 mi
11:00 PM
Oct 21
34 °FPassing clouds.6 mph93%29.76 "Hg15 mi
10:00 PM34 °FPassing clouds.6 mph93%29.76 "Hg15 mi
9:00 PM34 °FPassing clouds.5 mph87%29.78 "Hg15 mi
8:00 PM37 °FPassing clouds.7 mph81%29.77 "Hg15 mi
7:00 PM50 °FPartly sunny.3 mph62%29.73 "Hg15 mi
6:00 PM54 °FPartly sunny.2 mph54%29.71 "Hg15 mi
5:00 PM57 °FBroken clouds.5 mph51%29.69 "Hg15 mi
4:00 PM57 °FPartly sunny.3 mph51%29.68 "Hg15 mi
3:00 PM55 °FPartly sunny.3 mph55%29.67 "Hg15 mi
2:00 PM55 °FPartly sunny.2 mph55%29.66 "Hg15 mi
1:00 PM54 °FBroken clouds.6 mph63%29.70 "Hg15 mi
12:00 PM52 °FPartly sunny.9 mph67%29.70 "Hg15 mi
11:00 AM48 °FBroken clouds.7 mph76%29.68 "Hg15 mi
10:00 AM45 °FPartly sunny.3 mph87%29.68 "Hg15 mi
9:00 AM39 °FPartly cloudy.5 mph87%29.69 "Hg15 mi
8:49 AM36 °FPartly cloudy.5 mph93%29.69 "Hg15 mi
8:00 AM37 °FPartly cloudy.5 mph87%29.67 "Hg15 mi
7:00 AM41 °FPartly cloudy.6 mph87%29.64 "Hg15 mi
6:00 AM43 °FPassing clouds.5 mph81%29.62 "Hg15 mi
5:00 AM41 °FPassing clouds.3 mph81%29.61 "Hg15 mi
4:00 AM37 °FPassing clouds.5 mph87%29.59 "Hg15 mi
Weather by CustomWeather, © 2014

See weather overviewHow to use our weather pages